[[[{"header":{"parameterUnit":"kt","parameterCategory":2,"dx":1,"dy":1,"la1":30.253999710083008,"la2":30.299108505249023,"lo1":-89.0895004272461,"lo2":-89.04439544677734,"nx":28,"ny":28,"refTime":"2022-10-04T21:00:00:Z","depth":0,"parameterNumber":1,"parameterNumberName":"U-component_of_WINDS"},"data":[-2.332,-2.3434,-2.3458,-2.36,-2.3645,-2.3748,-2.3792,-2.3853,-2.3907,-2.4034,-2.4112,-2.4149,-2.4216,-2.4316,-2.4403,-2.4419,-2.4455,-2.4478,-2.4492,-2.4364,-2.4348,-2.4333,-2.4307,-2.4484,-2.4485,-2.4621,-2.4623,-2.4624,-2.3225,-2.3271,-2.3352,-2.3448,-2.3519,-2.3511,-2.3587,-2.3648,-2.374,-2.3808,-2.3886,-2.4,-2.4095,-2.4154,-2.425,-2.4307,-2.431,-2.4331,-2.4328,-2.4339,-2.4203,-2.4175,-2.4327,-2.4327,-2.4327,-2.4327,-2.4327,-2.4327,-2.306,-2.3128,-2.3198,-2.3288,-2.3342,-2.3407,-2.3476,-2.3519,-2.3601,-2.3702,-2.3715,-2.3821,-2.3896,-2.4024,-2.4073,-2.4158,-2.4139,-2.4171,-2.418,-2.4188,-2.4193,-2.3995,-2.4175,-2.4175,-2.4175,-2.4174,-2.4174,0,-2.2947,-2.2962,-2.3042,-2.3129,-2.3195,-2.3266,-2.3334,-2.3378,-2.342,-2.3486,-2.3585,-2.3646,-2.3767,-2.3864,-2.3959,-2.4005,-2.4006,-2.4009,-2.4031,-2.4027,-2.401,-2.4022,-2.3801,-2.4004,-2.4002,-2.4001,-2.4,-2.4,-2.2784,-2.2859,-2.2945,-2.2998,-2.3041,-2.3126,-2.3182,-2.3213,-2.3272,-2.3363,-2.3422,-2.3518,-2.3597,-2.3753,-2.3805,-2.3897,-2.3899,-2.3974,-2.3913,-2.3905,-2.3903,-2.3898,-2.3907,-2.3986,-2.3987,-2.3989,-2.399,0,-2.269,-2.2728,-2.2852,-2.293,-2.2952,-2.303,-2.3098,-2.3168,-2.3202,-2.3303,-2.3329,-2.3384,-2.3481,-2.3522,-2.3641,-2.366,-2.3794,-2.3792,-2.3768,-2.3771,-2.3843,-2.3837,-2.4068,-2.4101,-2.3916,-2.3918,-2.3919,0,-2.2567,-2.2664,-2.2715,-2.2786,-2.2896,-2.2924,-2.3033,-2.3073,-2.3136,-2.3216,-2.3222,-2.3297,-2.3336,-2.3419,-2.3446,-2.3562,-2.3584,-2.3606,-2.3613,-2.3607,-2.3604,-2.364,-2.3632,-2.3622,-2.362,-2.3619,-2.3618,0,-2.2417,-2.2558,-2.2672,-2.2711,-2.2804,-2.2857,-2.2899,-2.2969,-2.3024,-2.3103,-2.3139,-2.3229,-2.3278,-2.3349,-2.3383,-2.334,-2.3525,-2.3474,-2.3548,-2.3547,-2.3587,-2.3585,-2.3779,-2.3617,-2.3617,-2.3616,-2.3616,0,-2.2324,-2.2399,-2.2558,-2.2635,-2.2672,-2.2747,-2.2836,-2.2909,-2.2983,-2.3005,-2.3067,-2.3076,-2.3179,-2.3125,-2.3269,-2.3204,-2.3253,-2.3283,-2.3289,-2.3302,-2.324,-2.3346,-2.3525,-2.3547,-2.3312,-2.331,-2.3308,0,-2.2143,-2.2312,-2.2337,-2.2488,-2.2572,-2.2571,-2.2656,-2.2721,-2.2756,-2.2834,-2.2874,-2.2963,-2.2931,-2.2964,-2.303,-2.3075,-2.316,-2.3065,-2.3181,-2.3185,-2.3162,-2.3327,-2.3344,-2.3481,-2.3276,-2.3279,-2.3282,0,-2.2007,-2.2117,-2.2142,-2.2188,-2.2275,-2.2346,-2.2443,-2.2536,-2.2586,-2.2658,-2.2742,-2.2867,-2.2849,-2.2904,-2.292,-2.2987,-2.3104,-2.2958,-2.2961,-2.2985,-2.3262,-2.3278,-2.3301,-2.3101,-2.3105,-2.3108,-2.3256,0,-2.186,-2.1949,-2.2018,-2.2116,-2.2176,-2.2272,-2.2311,-2.237,-2.2379,-2.2413,-2.2536,-2.26,-2.2697,-2.2732,-2.2742,-2.288,-2.2864,-2.2843,-2.2794,-2.2902,-2.2952,-2.2972,-2.2716,-2.2715,-2.2714,-2.2713,0,0,-2.1679,-2.1807,-2.183,-2.1923,-2.1975,-2.1973,-2.2072,-2.2123,-2.2226,-2.2263,-2.2236,-2.2422,-2.2475,-2.2621,-2.2657,-2.2696,-2.2725,-2.2686,-2.285,-2.2865,-2.2879,-2.2932,-2.2952,-2.2711,-2.2711,-2.2711,-2.271,0,-2.1633,-2.1683,-2.1779,-2.1832,-2.1911,-2.1942,-2.1966,-2.2044,-2.2071,-2.219,-2.2188,-2.2267,-2.2414,-2.2471,-2.252,-2.2669,-2.2664,-2.2695,-2.2762,-2.2838,-2.2855,-2.2869,-2.2924,-2.2943,-2.2708,-2.2708,-2.2708,0,-2.1508,-2.1564,-2.1614,-2.173,-2.1782,-2.1868,-2.1826,-2.1918,-2.1983,-2.1978,-2.2096,-2.2138,-2.2217,-2.2348,-2.2408,-2.2386,-2.2606,-2.2543,-2.2551,-2.2559,-2.2634,-2.2654,-2.2671,-2.2442,-2.244,-2.2439,0,0,-2.1463,-2.1545,-2.1615,-2.1723,-2.1756,-2.1803,-2.1852,-2.1866,-2.1935,-2.1963,-2.2016,-2.2085,-2.2171,-2.2227,-2.231,-2.2448,-2.2468,-2.2508,-2.2521,-2.2531,-2.2544,-2.2623,-2.2642,-2.2435,-2.2435,-2.2435,0,0,-2.1442,-2.1527,-2.1522,-2.1652,-2.1718,-2.1795,-2.1861,-2.1858,-2.1936,-2.193,-2.1959,-2.1978,-2.2102,-2.2142,-2.2082,-2.2294,-2.2244,-2.226,-2.2262,-2.2279,-2.2291,-2.228,-2.2049,0,0,0,0,0,-2.1414,-2.1516,-2.1511,-2.1538,-2.1686,-2.1797,-2.1817,-2.1842,-2.1806,-2.1858,-2.1901,-2.1892,-2.2116,-2.2063,-2.2091,-2.2158,-2.2382,-2.2391,-2.24,-2.2436,-2.2453,-2.2467,0,0,0,0,0,0,-2.1425,-2.1459,-2.1508,-2.1589,-2.1623,-2.1794,-2.1739,-2.1749,-2.1801,-2.1798,-2.1884,-2.1894,-2.1919,-2.205,-2.2075,-2.2139,-2.204,-2.2385,-2.2393,-2.2401,-2.2442,-2.2456,-2.2468,0,0,0,0,0,-2.1434,-2.1461,-2.169,-2.1588,-2.1617,-2.1675,-2.1736,-2.1743,-2.1784,-2.1851,-2.1862,-2.1798,-2.192,-2.1943,-2.2065,-2.2127,-2.2023,-2.2032,-2.2391,-2.2397,-2.2403,-2.2449,0,0,0,0,0,0,-2.1441,-2.147,-2.1697,-2.1706,-2.1551,-2.1666,-2.1684,-2.1738,-2.1835,-2.1847,-2.1767,-2.1763,-2.1922,-2.194,-2.1957,-2.2121,-2.2009,-2.2019,-2.2024,-2.2395,-2.24,-2.2405,0,0,0,0,0,0,-2.1456,-2.1478,-2.1702,-2.1653,-2.1658,-2.1657,-2.1674,-2.1781,-2.1837,-2.1746,-2.1745,-2.1764,-2.1897,-2.1938,-2.1951,-2.2118,-2.1999,-2.2008,-2.2014,-2.2018,-2.2399,-2.2403,0,0,0,0,0,0,-2.1466,-2.1485,-2.1651,-2.1654,-2.1658,-2.1771,-2.1753,-2.1903,-2.1793,-2.1742,-2.1784,-2.178,-2.1895,-2.1909,-2.1947,-2.2108,-2.2116,-2.1999,-2.2005,-2.2009,-2.2012,0,0,0,0,0,0,0,-2.1474,-2.1337,-2.1638,-2.1655,-2.1659,-2.1797,-2.18,-2.1803,-2.1792,-2.1789,-2.1785,-2.1782,-2.1948,-2.1957,-2.1967,-2.2101,0,0,-2.1998,-2.2002,0,0,0,0,0,0,0,0,-2.1329,-2.1335,-2.1638,-2.164,-2.1642,-2.1798,-2.18,-2.1802,-2.1792,-2.1789,-2.1786,-2.1783,-2.195,-2.1958,-2.1966,0,0,0,0,0,0,0,0,0,0,0,0,0,0,0,-2.1638,-2.164,0,-2.1798,-2.18,-2.1802,-2.1791,-2.1789,-2.1786,-2.1784,-2.1953,-2.1959,-2.1966,0,0,0,0,0,0,0,0,0,0,0,0,0,0,0,0,0,0,0,0,0,0,0,0,0,0,0,0,0,0,0,0,0,0,0,0,0,0,0,0,0,0,0,0,0,0,0,0,0,0,0,0,0,0,0,0,0,0,0,0,0,0,0,0,0,0,0,0,0]}],[{"header":{"parameterUnit":"kt","parameterCategory":2,"dx":1,"dy":1,"la1":30.253999710083008,"la2":30.299108505249023,"lo1":-89.0895004272461,"lo2":-89.04439544677734,"nx":28,"ny":28,"refTime":"2022-10-04T21:00:00:Z","depth":0,"parameterNumber":2,"parameterNumberName":"V-component_of_WINDS"},"data":[3.7445,3.7487,3.7488,3.7535,3.7544,3.7576,3.7588,3.7603,3.7614,3.7651,3.7672,3.7677,3.7687,3.7712,3.7733,3.7734,3.7743,3.7757,3.7756,3.7694,3.7686,3.7677,3.7668,3.7759,3.7759,3.7819,3.7819,3.782,3.7399,3.7409,3.7435,3.746,3.7482,3.7469,3.7488,3.7506,3.7535,3.755,3.7571,3.7603,3.7628,3.7634,3.7657,3.7675,3.7669,3.7681,3.7679,3.7681,3.7616,3.7606,3.7685,3.7685,3.7685,3.7685,3.7685,3.7685,3.7315,3.734,3.7357,3.7385,3.7398,3.7415,3.7438,3.7443,3.7467,3.7494,3.7489,3.7521,3.7535,3.7563,3.7573,3.7596,3.7583,3.7596,3.7599,3.7601,3.7605,3.7517,3.76,3.76,3.76,3.76,3.76,0,3.7254,3.7254,3.7279,3.7304,3.7324,3.7344,3.7361,3.7376,3.7373,3.7393,3.7422,3.7438,3.747,3.7495,3.7518,3.7525,3.7512,3.7511,3.7519,3.7521,3.752,3.752,3.7413,3.7508,3.7507,3.7507,3.7506,3.7506,3.7169,3.7198,3.7216,3.7233,3.7244,3.7271,3.7288,3.7284,3.7301,3.7321,3.7343,3.7369,3.739,3.7434,3.7438,3.7461,3.7455,3.7491,3.7458,3.746,3.7454,3.7453,3.7455,3.7498,3.7499,3.7499,3.75,0,3.712,3.7123,3.7168,3.7183,3.7187,3.7218,3.7229,3.7254,3.7256,3.7289,3.7296,3.7299,3.7327,3.7325,3.7356,3.7354,3.7401,3.7395,3.7396,3.7394,3.7426,3.7423,3.7531,3.7544,3.745,3.7451,3.7452,0,3.7048,3.7087,3.7087,3.7114,3.7156,3.7151,3.7193,3.7199,3.7212,3.7238,3.7224,3.7249,3.7243,3.7267,3.7264,3.7302,3.7308,3.7309,3.7307,3.731,3.7309,3.7317,3.7312,3.7304,3.7304,3.7303,3.7303,0,3.6972,3.7018,3.7061,3.7071,3.7091,3.711,3.7119,3.7133,3.7149,3.7169,3.7179,3.7203,3.7216,3.7234,3.723,3.7207,3.7277,3.7245,3.7277,3.7277,3.7292,3.7291,3.7388,3.7302,3.7302,3.7302,3.7302,0,3.6913,3.6936,3.6998,3.7014,3.7026,3.7054,3.7078,3.7101,3.7117,3.7118,3.7133,3.7124,3.7158,3.7127,3.7173,3.7145,3.7158,3.7162,3.7164,3.7166,3.7131,3.7184,3.7278,3.7287,3.7169,3.7168,3.7167,0,3.6825,3.6889,3.6885,3.6945,3.6974,3.6957,3.6988,3.7003,3.7006,3.703,3.7033,3.706,3.7037,3.7045,3.7068,3.7072,3.7108,3.7067,3.7099,3.71,3.7095,3.7181,3.7195,3.7258,3.7153,3.7154,3.7155,0,3.6756,3.678,3.6791,3.6803,3.6823,3.6847,3.6883,3.691,3.6926,3.6944,3.6973,3.7012,3.6995,3.7009,3.7003,3.7028,3.7083,3.7007,3.7007,3.702,3.7146,3.7159,3.7169,3.7074,3.7076,3.7077,3.7144,0,3.6666,3.6699,3.6728,3.6756,3.6774,3.6812,3.6811,3.6831,3.6824,3.6826,3.6869,3.6881,3.6906,3.6918,3.6912,3.6969,3.6959,3.6941,3.6909,3.6966,3.6988,3.6997,3.6876,3.6875,3.6875,3.6874,0,0,3.658,3.6627,3.6622,3.6658,3.6673,3.6655,3.6695,3.6707,3.6733,3.6744,3.6726,3.6782,3.6792,3.6844,3.6862,3.6872,3.6882,3.6862,3.6939,3.6946,3.6953,3.6977,3.6986,3.6873,3.6872,3.6872,3.6872,0,3.6547,3.656,3.6601,3.6614,3.6634,3.6635,3.6644,3.666,3.6663,3.6706,3.6689,3.6714,3.6759,3.6772,3.6784,3.6856,3.6841,3.6864,3.6904,3.6931,3.694,3.6947,3.6972,3.6981,3.687,3.687,3.687,0,3.6479,3.6491,3.6511,3.6547,3.6559,3.659,3.6557,3.6591,3.6613,3.659,3.6632,3.6638,3.6654,3.6704,3.6726,3.671,3.6804,3.6774,3.6779,3.6781,3.6808,3.6818,3.6827,3.6709,3.6709,3.6708,0,0,3.645,3.6481,3.6493,3.654,3.6549,3.6551,3.6567,3.6562,3.6578,3.6585,3.6592,3.6608,3.6634,3.6651,3.6675,3.673,3.6732,3.6755,3.6762,3.6769,3.6774,3.6802,3.6812,3.6706,3.6706,3.6706,0,0,3.6436,3.6452,3.6443,3.6498,3.6514,3.6528,3.6556,3.6544,3.6566,3.6562,3.6553,3.6557,3.6603,3.661,3.6582,3.6663,3.6632,3.6639,3.6658,3.6667,3.6675,3.6672,3.6549,0,0,0,0,0,3.6402,3.645,3.6442,3.6451,3.6495,3.6533,3.6538,3.6533,3.6512,3.6534,3.6538,3.6521,3.6593,3.6569,3.6577,3.6607,3.6679,3.6684,3.6689,3.6725,3.6735,3.6744,0,0,0,0,0,0,3.6406,3.6417,3.644,3.6456,3.6466,3.6531,3.6493,3.6493,3.6509,3.6505,3.6521,3.6522,3.6517,3.6564,3.6571,3.6601,3.6546,3.6681,3.6685,3.6689,3.6729,3.6737,3.6744,0,0,0,0,0,3.6409,3.6418,3.6491,3.6455,3.6464,3.6469,3.6491,3.6491,3.6503,3.651,3.651,3.6498,3.6518,3.6524,3.6568,3.6597,3.6541,3.6544,3.6684,3.6687,3.669,3.6733,0,0,0,0,0,0,3.6411,3.6417,3.6492,3.6495,3.6437,3.6465,3.6469,3.6489,3.6506,3.6507,3.6486,3.6483,3.652,3.6524,3.6529,3.6596,3.6537,3.654,3.6541,3.6686,3.6689,3.6691,0,0,0,0,0,0,3.6412,3.6419,3.6493,3.6471,3.6471,3.6462,3.6466,3.6502,3.6507,3.6481,3.6479,3.6484,3.6512,3.6524,3.6528,3.6585,3.6533,3.6536,3.6538,3.6539,3.6688,3.669,0,0,0,0,0,0,3.6415,3.6421,3.647,3.647,3.647,3.6496,3.6493,3.6539,3.6489,3.6481,3.6484,3.6482,3.6512,3.6516,3.6527,3.6583,3.6584,3.6533,3.6535,3.6537,3.6538,0,0,0,0,0,0,0,3.6417,3.6378,3.6478,3.6469,3.6469,3.6517,3.6517,3.6518,3.6488,3.6486,3.6484,3.6483,3.6517,3.652,3.6524,3.6581,0,0,3.6533,3.6535,0,0,0,0,0,0,0,0,3.6375,3.6377,3.6478,3.6479,3.6479,3.6517,3.6517,3.6518,3.6488,3.6486,3.6485,3.6483,3.6518,3.6521,3.6523,0,0,0,0,0,0,0,0,0,0,0,0,0,0,0,3.6479,3.6479,0,3.6517,3.6517,3.6518,3.6488,3.6486,3.6485,3.6484,3.6519,3.6521,3.6523,0,0,0,0,0,0,0,0,0,0,0,0,0,0,0,0,0,0,0,0,0,0,0,0,0,0,0,0,0,0,0,0,0,0,0,0,0,0,0,0,0,0,0,0,0,0,0,0,0,0,0,0,0,0,0,0,0,0,0,0,0,0,0,0,0,0,0,0,0]}]]]